This is the latest recevied weather packets stored in our database for station/object KO4LFZ. If no packets are shown the sender has not sent any weather packets the latest 1 day(s).
| Time | Temp. | Humidity | Pressure | Rain* | Wind** | Luminosity | Snow |
|---|---|---|---|---|---|---|---|
| 1778100616 | 13.89° C | 81% | 1014.3 hPa | 0 mm | - | 104 W/m² | - |
| 1778100011 | 13.89° C | 79% | 1015.1 hPa | 0 mm | - | 43 W/m² | - |
| 1778099405 | 13.89° C | 79% | 1014.7 hPa | 0 mm | - | 68 W/m² | - |
| 1778099103 | 13.89° C | 78% | 1014.8 hPa | 0 mm | - | 90 W/m² | - |
| 1778097585 | 13.89° C | 78% | 1014.7 hPa | 0 mm | - | 95 W/m² | - |
| 1778096671 | 13.89° C | 79% | 1015.6 hPa | 0 mm | - | 119 W/m² | - |
| 1778095149 | 13.89° C | 79% | 1015.4 hPa | 0 mm | - | 72 W/m² | - |
| 1778094543 | 13.89° C | 79% | 1015.3 hPa | 0 mm | - | 148 W/m² | - |
| 1778093936 | 13.89° C | 79% | 1015 hPa | 0 mm | - | 137 W/m² | - |
| 1778093633 | 13.89° C | 78% | 1015 hPa | 0 mm | - | 186 W/m² | - |
| 1778093330 | 13.89° C | 78% | 1014.8 hPa | 0 mm | - | 198 W/m² | - |
| 1778092724 | 13.89° C | 79% | 1015 hPa | 0 mm | - | 166 W/m² | - |
| 1778092111 | 14.44° C | 79% | 1014.9 hPa | 0 mm | - | 197 W/m² | - |
| 1778091808 | 13.89° C | 81% | 1015 hPa | 0 mm | - | 248 W/m² | - |
| 1778088778 | 13.89° C | 80% | 1015.1 hPa | 0 mm | - | 314 W/m² | - |
| 1778088475 | 13.89° C | 83% | 1015 hPa | 0 mm | - | 276 W/m² | - |
| 1778087566 | 13.33° C | 82% | 1015.2 hPa | 0 mm | - | 222 W/m² | - |
| 1778086960 | 13.33° C | 83% | 1015.2 hPa | 0 mm | - | 216 W/m² | - |
| 1778086659 | 13.33° C | 82% | 1015 hPa | 0 mm | - | 303 W/m² | - |
| 1778084250 | 12.22° C | 86% | 1014.9 hPa | 0 mm | - | 301 W/m² | - |
| 1778083639 | 12.22° C | 88% | 1014.7 hPa | 0 mm | - | 237 W/m² | - |
| 1778083335 | 12.22° C | 86% | 1015.1 hPa | 0 mm | - | 227 W/m² | - |
| 1778080078 | 11.11° C | 89% | 1015 hPa | 0 mm | - | 185 W/m² | - |
| 1778078563 | 11.11° C | 90% | 1014.4 hPa | 0 mm | - | 261 W/m² | - |
| 1778077354 | 10.56° C | 89% | 1014.1 hPa | 0 mm | - | 239 W/m² | - |
* Rain latest hour (hover to see other rain measurements)
** Current wind speed in m/s (hover to see current wind gust speed)